Vernon, TX

3:20 AM CDT on July 25, 2017 (GMT -0500)
Vernon

Weather History for KF05 - February, 2013

Change the Weather History Date:

Sunday, February 17, 2013

  Actual Average (KLTS) Record (KLTS)
Temperature  
Mean Temperature 53 °F -  
Max Temperature 75 °F 55 °F 71 °F (2016)
Min Temperature 31 °F 33 °F 25 °F (2015)
Degree Days  
Heating Degree Days 12    
Growing Degree Days 3 (Base 50)    
Moisture  
Dew Point 26 °F    
Average Humidity 43    
Maximum Humidity 81    
Minimum Humidity 13    
Precipitation  
Precipitation 0.00 in - - ()
Sea Level Pressure  
Sea Level Pressure 29.90 in    
Wind  
Wind Speed 9 mph (South)    
Max Wind Speed 24 mph    
Max Gust Speed 31 mph    
Visibility 10 miles    
Events      
Averages and records for this station are not official NWS values.
T = Trace of Precipitation, MM = Missing Value Source: NWS Daily Summary

Daily Weather History Graph

Daily Weather History Graph

Search for Another Location

Airport or City:

Trip Planner

Search our weather history database for the weather conditions in past years. The results will help you decide how hot, cold, wet, or windy it might be!

Date:

Astronomy

Feb. 17, 2013 Rise Set
Actual Time 7:19 AM CST 6:22 PM CST
Civil Twilight 6:54 AM CST 6:48 PM CST
Nautical Twilight 6:24 AM CST 7:17 PM CST
Astronomical Twilight 5:55 AM CST 7:47 PM CST
Moon 11:34 AM CST (2/17) 12:59 AM CST (2/17)
Length of Visible Light 11h 54m
Length of Day
11h 03m
Waxing Crescent, 49% of the Moon is Illuminated
Feb 17
Waxing Crescent
Feb 17
First Quarter
Feb 25
Full
Mar 4
Last Quarter
Mar 11
New

Hourly Weather History & Observations

Time (CST) Temp. Windchill Dew Point Humidity Pressure Visibility Wind Dir Wind Speed Gust Speed Precip Events Conditions
12:15 AM 41.9 °F 38.2 °F 28.6 °F 59% 30.08 in 10.0 mi South 5.8 mph - N/A   Clear
12:35 AM 41.0 °F - 28.6 °F 61% 30.07 in 10.0 mi Calm Calm - N/A   Clear
12:55 AM 40.5 °F 36.5 °F 28.6 °F 63% 30.06 in 10.0 mi South 5.8 mph - N/A   Clear
1:15 AM 39.0 °F 36.8 °F 28.8 °F 67% 30.06 in 10.0 mi South 3.5 mph - N/A   Clear
1:35 AM 40.1 °F 36.9 °F 28.9 °F 64% 30.05 in 10.0 mi SE 4.6 mph - N/A   Clear
1:55 AM 40.6 °F - 28.8 °F 63% 30.05 in 10.0 mi Calm Calm - N/A   Clear
2:15 AM 39.0 °F - 28.4 °F 66% 30.05 in 10.0 mi Calm Calm - N/A   Clear
2:35 AM 39.4 °F 36.1 °F 28.4 °F 65% 30.04 in 10.0 mi ESE 4.6 mph - N/A   Clear
2:55 AM 39.4 °F 36.1 °F 28.0 °F 64% 30.03 in 10.0 mi SE 4.6 mph - N/A   Clear
3:15 AM 39.4 °F 37.2 °F 27.9 °F 63% 30.03 in 10.0 mi SSE 3.5 mph - N/A   Clear
3:35 AM 38.5 °F 33.4 °F 27.7 °F 65% 30.02 in 10.0 mi SSE 6.9 mph - N/A   Clear
3:55 AM 37.0 °F 32.4 °F 27.3 °F 68% 30.01 in 10.0 mi South 5.8 mph - N/A   Scattered Clouds
4:15 AM 35.6 °F 29.9 °F 27.1 °F 71% 30.00 in 10.0 mi South 6.9 mph - N/A   Scattered Clouds
4:35 AM 35.2 °F 28.1 °F 27.3 °F 73% 30.00 in 10.0 mi SSW 9.2 mph - N/A   Scattered Clouds
4:55 AM 34.9 °F 29.0 °F 27.3 °F 74% 30.00 in 10.0 mi SSW 6.9 mph - N/A   Scattered Clouds
5:15 AM 33.8 °F - 26.8 °F 75% 30.00 in 10.0 mi Calm Calm - N/A   Scattered Clouds
5:35 AM 33.8 °F - 26.8 °F 75% 30.00 in 10.0 mi Calm Calm - N/A   Scattered Clouds
5:55 AM 32.4 °F 29.1 °F 26.4 °F 79% 30.00 in 10.0 mi NE 3.5 mph - N/A   Clear
6:15 AM 32.2 °F - 26.6 °F 80% 30.00 in 10.0 mi Calm Calm - N/A   Clear
6:35 AM 31.6 °F - 26.4 °F 81% 30.00 in 10.0 mi Calm Calm - N/A   Clear
6:55 AM 31.8 °F - 26.6 °F 81% 30.00 in 10.0 mi Calm Calm - N/A   Clear
7:15 AM 31.8 °F - 26.2 °F 80% 30.00 in 10.0 mi Calm Calm - N/A   Clear
7:35 AM 31.5 °F 28.1 °F 26.2 °F 81% 29.99 in 10.0 mi SSE 3.5 mph - N/A   Clear
7:55 AM 33.8 °F 27.7 °F 25.9 °F 73% 29.99 in 10.0 mi SSE 6.9 mph - N/A   Clear
8:15 AM 34.5 °F 30.4 °F 27.0 °F 74% 29.99 in 10.0 mi South 4.6 mph - N/A   Clear
8:35 AM 36.9 °F 34.3 °F 28.9 °F 73% 29.99 in 10.0 mi South 3.5 mph - N/A   Clear
8:55 AM 40.5 °F 36.5 °F 31.1 °F 69% 29.99 in 10.0 mi South 5.8 mph - N/A   Clear
9:15 AM 45.1 °F 39.1 °F 31.5 °F 59% 29.99 in 10.0 mi SSW 12.7 mph - N/A   Clear
9:35 AM 48.6 °F - 30.6 °F 50% 29.99 in 10.0 mi SSW 13.8 mph - N/A   Clear
9:55 AM 50.5 °F - 31.3 °F 48% 29.98 in 10.0 mi SW 16.1 mph - N/A   Clear
10:15 AM 53.6 °F - 29.7 °F 40% 29.98 in 10.0 mi SW 21.9 mph 25.3 mph N/A   Clear
10:35 AM 55.6 °F - 27.5 °F 34% 29.97 in 10.0 mi SW 20.7 mph 25.3 mph N/A   Clear
10:55 AM 57.4 °F - 27.7 °F 32% 29.97 in 10.0 mi SW 19.6 mph - N/A   Clear
11:15 AM 58.5 °F - 27.5 °F 31% 29.96 in 10.0 mi SW 19.6 mph - N/A   Clear
11:35 AM 59.9 °F - 27.1 °F 29% 29.95 in 10.0 mi SSW 20.7 mph - N/A   Clear
11:55 AM 61.5 °F - 26.6 °F 27% 29.94 in 10.0 mi SSW 17.3 mph 24.2 mph N/A   Clear
12:15 PM 63.0 °F - 25.9 °F 24% 29.93 in 10.0 mi SSW 21.9 mph - N/A   Clear
12:35 PM 64.4 °F - 24.8 °F 22% 29.91 in 10.0 mi SSW 20.7 mph 25.3 mph N/A   Clear
12:55 PM 65.8 °F - 24.4 °F 21% 29.89 in 10.0 mi SSW 20.7 mph - N/A   Clear
1:15 PM 67.6 °F - 24.8 °F 20% 29.88 in 10.0 mi South 19.6 mph 25.3 mph N/A   Clear
1:35 PM 69.4 °F - 24.4 °F 18% 29.86 in 10.0 mi South 20.7 mph 26.5 mph N/A   Clear
1:55 PM 71.8 °F - 22.6 °F 16% 29.84 in 10.0 mi SSW 21.9 mph 27.6 mph N/A   Clear
2:15 PM 73.2 °F - 21.0 °F 14% 29.83 in 10.0 mi South 18.4 mph 29.9 mph N/A   Clear
2:35 PM 74.3 °F - 21.0 °F 14% 29.82 in 10.0 mi SSW 20.7 mph 29.9 mph N/A   Clear
2:55 PM 75.2 °F - 21.0 °F 13% 29.80 in 10.0 mi South 24.2 mph 27.6 mph N/A   Clear
3:15 PM 75.6 °F - 20.8 °F 13% 29.79 in 10.0 mi South 21.9 mph 29.9 mph N/A   Clear
3:35 PM 75.9 °F - 20.8 °F 13% 29.79 in 10.0 mi SSW 24.2 mph 27.6 mph N/A   Clear
3:55 PM 75.6 °F - 20.8 °F 13% 29.79 in 10.0 mi SSW 23.0 mph 27.6 mph N/A   Clear
4:15 PM 75.7 °F - 20.8 °F 13% 29.78 in 10.0 mi SSW 21.9 mph 31.1 mph N/A   Clear
4:35 PM 75.4 °F - 20.3 °F 13% 29.77 in 10.0 mi South 24.2 mph 27.6 mph N/A   Clear
5:15 PM 74.5 °F - 21.0 °F 13% 29.76 in 10.0 mi South 18.4 mph - N/A   Clear
5:35 PM 73.4 °F - 21.0 °F 14% 29.75 in 10.0 mi South 20.7 mph 27.6 mph N/A   Clear
5:55 PM 71.8 °F - 21.7 °F 15% 29.75 in 10.0 mi South 17.3 mph - N/A   Clear
6:15 PM 69.6 °F - 22.3 °F 17% 29.75 in 10.0 mi South 15.0 mph - N/A   Clear
6:55 PM 65.1 °F - 23.9 °F 21% 29.74 in 10.0 mi South 15.0 mph - N/A   Clear
7:15 PM 64.6 °F - 23.5 °F 21% 29.75 in 10.0 mi South 15.0 mph - N/A   Clear
7:35 PM 63.1 °F - 23.7 °F 22% 29.75 in 10.0 mi South 15.0 mph - N/A   Clear
7:55 PM 62.4 °F - 24.3 °F 23% 29.75 in 10.0 mi South 16.1 mph 21.9 mph N/A   Clear
8:15 PM 62.4 °F - 23.9 °F 23% 29.76 in 10.0 mi South 16.1 mph - N/A   Clear
8:35 PM 62.1 °F - 23.4 °F 23% 29.76 in 10.0 mi South 17.3 mph - N/A   Clear
8:55 PM 61.7 °F - 22.8 °F 23% 29.76 in 10.0 mi South 17.3 mph - N/A   Clear
9:15 PM 61.7 °F - 23.2 °F 23% 29.75 in 10.0 mi South 17.3 mph 26.5 mph N/A   Clear
9:35 PM 61.7 °F - 23.9 °F 24% 29.75 in 10.0 mi South 19.6 mph 26.5 mph N/A   Clear
9:55 PM 61.2 °F - 24.6 °F 25% 29.75 in 10.0 mi South 19.6 mph 26.5 mph N/A   Clear
10:15 PM 59.9 °F - 25.7 °F 27% 29.76 in 10.0 mi South 17.3 mph - N/A   Clear
10:55 PM 55.6 °F - 26.4 °F 33% 29.76 in 10.0 mi South 13.8 mph - N/A   Clear
11:15 PM 54.0 °F - 28.0 °F 37% 29.76 in 10.0 mi SSE 11.5 mph - N/A   Clear
11:35 PM 52.3 °F - 30.2 °F 43% 29.75 in 10.0 mi South 10.4 mph - N/A   Clear
11:55 PM 52.3 °F - 31.3 °F 45% 29.74 in 10.0 mi South 12.7 mph - N/A   Clear